• In Germany
  • List of Countries
  • For 7 days
  • Water Temperature
  • Satellite Maps
  • Weather Map
  • Weather Widgets
  • user-avatar
    Login

    Hourly Weather Kalgoorlie

    Today, 26 July, Wednesday

    Time Temperature Precipitation Wind Pressure Humidity
    00:00 +13°C° 0 mm 3 mps 732 mmHg 50%
    01:00 +13°C° 0 mm 3 mps 732 mmHg 50%
    02:00 +13°C° 0 mm 3 mps 732 mmHg 51%
    03:00 +13°C° 0 mm 3 mps 732 mmHg 51%
    04:00 +12°C° 0 mm 3 mps 732 mmHg 52%
    05:00 +12°C° 0 mm 3 mps 732 mmHg 52%
    06:00 +12°C° 0 mm 3 mps 732 mmHg 51%
    07:00 +13°C° 0 mm 3 mps 732 mmHg 51%
    08:00 +13°C° 0 mm 3 mps 732 mmHg 50%
    09:00 +17°C° 0 mm 4 mps 732 mmHg 45%
    10:00 +19°C° 0 mm 5 mps 732 mmHg 39%
    11:00 +21°C° 0 mm 5 mps 732 mmHg 34%
    12:00 +22°C° 0 mm 6 mps 731 mmHg 31%
    13:00 +23°C° 0 mm 7 mps 731 mmHg 28%
    14:00 +24°C° 0 mm 7 mps 731 mmHg 25%
    15:00 +23°C° 0 mm 6 mps 731 mmHg 26%
    16:00 +22°C° 0 mm 6 mps 731 mmHg 26%
    17:00 +21°C° 0 mm 5 mps 731 mmHg 27%
    18:00 +20°C° 0 mm 4 mps 731 mmHg 31%
    19:00 +18°C° 0 mm 4 mps 731 mmHg 35%
    20:00 +17°C° 0 mm 4 mps 732 mmHg 39%
    21:00 +15°C° 0 mm 4 mps 732 mmHg 47%
    22:00 +16°C° 0 mm 3 mps 732 mmHg 56%
    23:00 +14°C° 0 mm 3 mps 732 mmHg 65%

    Tomorrow, 27 July, Thursday

    Time Temperature Precipitation Wind Pressure Humidity
    00:00 +13°C° 0 mm 3 mps 732 mmHg 71%
    01:00 +13°C° 0 mm 3 mps 732 mmHg 77%
    02:00 +14°C° 0 mm 2 mps 732 mmHg 83%
    03:00 +13°C° 0 mm 2 mps 732 mmHg 86%
    04:00 +13°C° 0 mm 1 mps 732 mmHg 89%
    05:00 +12°C° 0 mm 1 mps 732 mmHg 91%
    06:00 +13°C° 0 mm 1 mps 732 mmHg 88%
    07:00 +13°C° 0 mm 2 mps 732 mmHg 85%
    08:00 +13°C° 0 mm 3 mps 732 mmHg 82%
    09:00 +15°C° 0 mm 4 mps 732 mmHg 71%
    10:00 +17°C° 0 mm 5 mps 732 mmHg 61%
    11:00 +20°C° 0 mm 6 mps 732 mmHg 51%
    12:00 +21°C° 0 mm 7 mps 731 mmHg 43%
    13:00 +22°C° 0 mm 7 mps 730 mmHg 35%
    14:00 +23°C° 0 mm 8 mps 729 mmHg 28%
    15:00 +23°C° 0 mm 7 mps 729 mmHg 27%
    16:00 +22°C° 0 mm 6 mps 729 mmHg 26%
    17:00 +22°C° 0 mm 5 mps 728 mmHg 25%
    18:00 +21°C° 0 mm 5 mps 728 mmHg 27%
    19:00 +20°C° 0 mm 5 mps 728 mmHg 29%
    20:00 +19°C° 0 mm 5 mps 728 mmHg 31%
    21:00 +19°C° 0 mm 5 mps 728 mmHg 32%
    22:00 +19°C° 0 mm 6 mps 728 mmHg 33%
    23:00 +17°C° 0 mm 6 mps 728 mmHg 34%

    Day after tomorrow, 28 July, Friday

    Time Temperature Precipitation Wind Pressure Humidity
    00:00 +17°C° 0 mm 6 mps 728 mmHg 35%
    01:00 +17°C° 0 mm 6 mps 727 mmHg 37%
    02:00 +16°C° 0 mm 7 mps 727 mmHg 39%
    03:00 +16°C° 0 mm 7 mps 727 mmHg 44%
    04:00 +15°C° 0 mm 7 mps 726 mmHg 49%
    05:00 +14°C° 0 mm 7 mps 726 mmHg 54%
    06:00 +14°C° 0 mm 7 mps 726 mmHg 60%
    07:00 +13°C° 0 mm 8 mps 726 mmHg 66%
    08:00 +15°C° 0 mm 9 mps 726 mmHg 71%
    09:00 +17°C° 0 mm 11 mps 726 mmHg 60%
    10:00 +19°C° 0 mm 13 mps 726 mmHg 50%
    11:00 +22°C° 0 mm 14 mps 726 mmHg 39%
    12:00 +23°C° 0 mm 15 mps 726 mmHg 35%
    13:00 +24°C° 0 mm 16 mps 725 mmHg 31%
    14:00 +26°C° 0 mm 16 mps 724 mmHg 27%
    15:00 +22°C° 0.1 mm 15 mps 724 mmHg 40%
    16:00 +19°C° 0.1 mm 13 mps 724 mmHg 53%
    17:00 +16°C° 0.1 mm 11 mps 725 mmHg 67%
    18:00 +14°C° 0.3 mm 11 mps 725 mmHg 68%
    19:00 +14°C° 0.3 mm 10 mps 726 mmHg 69%
    20:00 +13°C° 0.3 mm 10 mps 727 mmHg 71%
    21:00 +12°C° 0.2 mm 10 mps 728 mmHg 70%
    22:00 +12°C° 0.2 mm 9 mps 728 mmHg 69%
    23:00 +11°C° 0.2 mm 9 mps 728 mmHg 68%

    29 July, Saturday

    Time Temperature Precipitation Wind Pressure Humidity
    00:00 +11°C° 0 mm 9 mps 728 mmHg 70%
    01:00 +10°C° 0 mm 9 mps 728 mmHg 71%
    02:00 +9°C° 0 mm 8 mps 728 mmHg 73%
    03:00 +7°C° 0 mm 8 mps 729 mmHg 73%
    04:00 +7°C° 0 mm 8 mps 729 mmHg 73%
    05:00 +6°C° 0 mm 8 mps 729 mmHg 74%
    06:00 +7°C° 0 mm 9 mps 730 mmHg 73%
    07:00 +7°C° 0 mm 9 mps 731 mmHg 71%
    08:00 +7°C° 0 mm 10 mps 731 mmHg 70%
    09:00 +8°C° 0 mm 10 mps 731 mmHg 63%
    10:00 +9°C° 0 mm 10 mps 731 mmHg 56%
    11:00 +11°C° 0 mm 9 mps 731 mmHg 48%
    12:00 +12°C° 0 mm 9 mps 731 mmHg 46%
    13:00 +12°C° 0 mm 9 mps 730 mmHg 44%
    14:00 +13°C° 0 mm 9 mps 730 mmHg 42%
    15:00 +12°C° 0 mm 9 mps 730 mmHg 44%
    16:00 +12°C° 0 mm 8 mps 730 mmHg 46%
    17:00 +12°C° 0 mm 8 mps 730 mmHg 49%
    18:00 +11°C° 0 mm 7 mps 731 mmHg 52%
    19:00 +10°C° 0 mm 6 mps 731 mmHg 56%
    20:00 +10°C° 0 mm 5 mps 731 mmHg 59%
    21:00 +9°C° 0 mm 5 mps 731 mmHg 62%
    22:00 +9°C° 0 mm 6 mps 731 mmHg 64%
    23:00 +9°C° 0 mm 6 mps 731 mmHg 67%

    30 July, Sunday

    Time Temperature Precipitation Wind Pressure Humidity
    00:00 +8°C° 0 mm 7 mps 731 mmHg 70%
    01:00 +8°C° 0 mm 7 mps 730 mmHg 73%
    02:00 +8°C° 0 mm 7 mps 730 mmHg 77%
    03:00 +7°C° 0.1 mm 8 mps 730 mmHg 76%
    04:00 +7°C° 0.1 mm 9 mps 731 mmHg 75%
    05:00 +7°C° 0.1 mm 10 mps 731 mmHg 74%
    06:00 +7°C° 0 mm 10 mps 732 mmHg 71%
    07:00 +7°C° 0 mm 10 mps 732 mmHg 68%
    08:00 +6°C° 0 mm 10 mps 733 mmHg 65%
    09:00 +8°C° 0 mm 10 mps 733 mmHg 59%
    10:00 +9°C° 0 mm 10 mps 733 mmHg 52%
    11:00 +11°C° 0 mm 9 mps 733 mmHg 46%
    12:00 +12°C° 0 mm 9 mps 733 mmHg 43%
    13:00 +13°C° 0 mm 8 mps 733 mmHg 40%
    14:00 +15°C° 0 mm 7 mps 732 mmHg 38%
    15:00 +14°C° 0 mm 6 mps 733 mmHg 39%
    16:00 +14°C° 0 mm 5 mps 733 mmHg 41%
    17:00 +13°C° 0 mm 4 mps 733 mmHg 43%
    18:00 +12°C° 0 mm 3 mps 734 mmHg 47%
    19:00 +11°C° 0 mm 3 mps 735 mmHg 51%
    20:00 +10°C° 0 mm 3 mps 735 mmHg 55%
    21:00 +10°C° 0 mm 3 mps 735 mmHg 58%
    22:00 +9°C° 0 mm 2 mps 735 mmHg 62%
    23:00 +9°C° 0 mm 2 mps 735 mmHg 65%

    31 July, Monday

    Time Temperature Precipitation Wind Pressure Humidity
    00:00 +8°C° 0 mm 2 mps 735 mmHg 67%
    01:00 +8°C° 0 mm 2 mps 735 mmHg 69%
    02:00 +8°C° 0 mm 1 mps 735 mmHg 72%
    03:00 +7°C° 0 mm 2 mps 735 mmHg 72%
    04:00 +7°C° 0 mm 3 mps 735 mmHg 73%
    05:00 +7°C° 0 mm 3 mps 735 mmHg 74%
    06:00 +6°C° 0 mm 4 mps 735 mmHg 71%
    07:00 +7°C° 0 mm 5 mps 735 mmHg 68%
    08:00 +7°C° 0 mm 5 mps 735 mmHg 66%
    09:00 +9°C° 0 mm 6 mps 735 mmHg 57%
    10:00 +11°C° 0 mm 6 mps 735 mmHg 49%
    11:00 +14°C° 0 mm 7 mps 734 mmHg 41%
    12:00 +15°C° 0 mm 7 mps 733 mmHg 37%
    13:00 +16°C° 0 mm 7 mps 732 mmHg 33%
    14:00 +17°C° 0 mm 7 mps 731 mmHg 29%
    15:00 +16°C° 0 mm 6 mps 731 mmHg 29%
    16:00 +16°C° 0 mm 6 mps 731 mmHg 28%
    17:00 +15°C° 0 mm 5 mps 731 mmHg 28%
    18:00 +14°C° 0 mm 5 mps 730 mmHg 29%
    19:00 +13°C° 0 mm 5 mps 730 mmHg 31%
    20:00 +12°C° 0 mm 5 mps 730 mmHg 32%
    21:00 +12°C° 0 mm 5 mps 729 mmHg 32%
    22:00 +11°C° 0 mm 6 mps 728 mmHg 32%
    23:00 +11°C° 0 mm 6 mps 728 mmHg 32%
    Show more